Weather reports worldwide

Advertisment
Kleine Brogel, Belgium (6479): temperature & dewpoint: 15.05.2019 05:00:00 - 21.05.2019 05:00:00 (CEST)Kleine Brogel, Belgium (6479): wind speed & gusts: 15.05.2019 05:00:00 - 21.05.2019 05:00:00 (CEST)Kleine Brogel, Belgium (6479): wind direction: 15.05.2019 05:00:00 - 21.05.2019 05:00:00 (CEST)Kleine Brogel, Belgium (6479): reduced air pressure: 15.05.2019 05:00:00 - 21.05.2019 05:00:00 (CEST)Kleine Brogel, Belgium (6479): visibility: 15.05.2019 05:00:00 - 21.05.2019 05:00:00 (CEST)
Date & Time tt [°C] td [°C] ff [km/h] ff [kn] fx [km/h] fx [kn] dd ppp [hPa] vv [km]
21.05.2019 05:00:00 10,5 10,2 14 8 - - W 1011,8 1,6
21.05.2019 04:00:00 10,6 10,2 14 8 25 14 W 1012,1 1,6
21.05.2019 03:00:00 10,8 10,5 11 6 29 16 WNW 1012,1 1,5
21.05.2019 02:00:00 11,1 10,2 11 6 - - WNW 1012,0 3,7
21.05.2019 01:00:00 11,5 10,0 11 6 32 18 WNW 1011,7 5
21.05.2019 00:00:00 12,1 10,1 14 8 29 16 WNW 1011,8 8
20.05.2019 23:00:00 12,6 11,1 11 6 - - WNW 1011,5 3,0
20.05.2019 22:00:00 12,5 11,4 11 6 25 14 W 1011,3 2,0
20.05.2019 21:00:00 12,8 11,5 11 6 25 14 WNW 1010,8 6
20.05.2019 20:00:00 13,3 11,3 11 6 - - W 1010,2 7
20.05.2019 19:00:00 14,3 11,3 11 6 22 12 WNW 1010,2 7
20.05.2019 18:00:00 14,1 11,3 11 6 18 10 WNW 1010,2 7
20.05.2019 17:00:00 14,1 11,4 11 6 - - WNW 1010,0 7
20.05.2019 16:00:00 14,0 11,3 11 6 18 10 W 1009,7 7
20.05.2019 15:00:00 14,3 12,2 11 6 22 12 W 1009,7 6
20.05.2019 14:00:00 13,6 11,7 13 7 - - W 1009,7 7
20.05.2019 13:00:00 13,6 11,1 7 4 18 10 W 1009,5 5
20.05.2019 12:00:00 13,3 11,0 7 4 14 8 WNW 1009,1 5
20.05.2019 11:00:00 13,1 10,7 11 6 - - W 1008,8 5
20.05.2019 10:00:00 12,8 10,9 11 6 18 10 W 1008,5 5
20.05.2019 09:00:00 12,5 10,6 7 4 14 8 W 1008,5 5
20.05.2019 08:00:00 12,6 11,1 4 2 - - N 1008,2 3,5
20.05.2019 07:00:00 12,1 11,3 4 2 11 6 N 1008,0 3,4
20.05.2019 06:00:00 12,0 11,4 4 2 7 4 N 1007,5 3,3
20.05.2019 05:00:00 12,1 11,5 4 2 - - N 1007,6 3,4
20.05.2019 04:00:00 12,1 11,5 7 4 14 8 W 1007,3 3,3
20.05.2019 03:00:00 12,4 12,0 7 4 14 8 WNW 1007,3 2,4
20.05.2019 02:00:00 12,6 12,2 7 4 - - W 1007,2 2,0
20.05.2019 01:00:00 12,8 12,4 4 2 11 6 N 1007,3 2,2
20.05.2019 00:00:00 13,1 12,7 4 2 18 10 N 1007,3 2,2
19.05.2019 23:00:00 13,1 12,6 7 4 - - WNW 1006,7 2,3
19.05.2019 22:00:00 13,3 12,6 11 6 22 12 NW 1006,7 5
19.05.2019 21:00:00 13,8 13,0 4 2 11 6 N 1006,6 9
19.05.2019 20:00:00 13,8 12,4 4 2 - - N 1006,7 13
19.05.2019 19:00:00 13,8 13,3 11 6 22 12 NW 1006,0 9
19.05.2019 18:00:00 13,5 12,7 7 4 25 14 WNW 1006,0 8
19.05.2019 17:00:00 14,3 13,8 18 10 - - SSW 1006,1 10
19.05.2019 16:00:00 18,3 14,6 11 6 22 12 N 1004,8 10
19.05.2019 15:00:00 21,6 11,1 11 6 22 12 N 1005,1 17
19.05.2019 14:00:00 22,2 10,8 11 6 - - NNE 1005,5 19
19.05.2019 13:00:00 20,2 13,1 7 4 18 10 W 1005,8 11
19.05.2019 12:00:00 19,1 13,4 4 2 14 8 N 1006,2 7
19.05.2019 11:00:00 16,2 13,1 7 4 - - NW 1006,3 5
19.05.2019 10:00:00 15,6 13,2 4 2 14 8 N 1006,5 3,6
19.05.2019 09:00:00 14,2 12,8 4 2 11 6 N 1006,5 3,2
19.05.2019 08:00:00 13,5 12,4 4 2 - - N 1006,5 3,5
19.05.2019 07:00:00 12,8 12,1 4 2 11 6 N 1006,1 2,8
19.05.2019 06:00:00 13,1 11,8 4 2 7 4 N 1006,2 4,0
19.05.2019 05:00:00 13,3 11,6 4 2 - - N 1006,1 4,5
19.05.2019 04:00:00 13,3 11,4 4 2 11 6 N 1006,3 5
19.05.2019 03:00:00 13,9 11,4 4 2 7 4 N 1006,6 6
19.05.2019 02:00:00 14,3 11,1 4 2 - - N 1006,8 8
19.05.2019 01:00:00 14,6 11,1 4 2 11 6 N 1007,0 11
19.05.2019 00:00:00 15,1 11,8 4 2 4 2 N 1007,2 18
18.05.2019 23:00:00 15,6 12,0 4 2 - - N 1007,1 15
18.05.2019 22:00:00 16,3 12,5 7 4 7 4 N 1007,0 20
18.05.2019 21:00:00 17,3 12,4 2 1 7 4 - 1006,7 10
18.05.2019 20:00:00 18,2 11,7 4 2 - - N 1006,3 19
18.05.2019 19:00:00 18,2 11,0 4 2 14 8 N 1006,1 19
18.05.2019 18:00:00 19,3 10,8 7 4 14 8 ESE 1005,7 20
18.05.2019 17:00:00 20,8 8,6 4 2 - - N 1005,7 20
18.05.2019 16:00:00 20,3 10,0 7 4 18 10 SSE 1005,7 19
18.05.2019 15:00:00 21,2 9,0 7 4 14 8 NE 1006,0 20
18.05.2019 14:00:00 19,7 10,5 4 2 - - N 1006,1 17
18.05.2019 13:00:00 18,1 11,9 4 2 11 6 N 1006,5 9
18.05.2019 12:00:00 16,4 11,2 4 2 7 4 N 1006,7 8
18.05.2019 11:00:00 14,4 11,2 4 2 - - N 1006,7 5
18.05.2019 10:00:00 13,1 10,9 4 2 4 2 N 1006,7 5
18.05.2019 09:00:00 12,0 11,2 4 2 4 2 N 1006,5 4,0
18.05.2019 08:00:00 10,8 10,4 4 2 - - N 1006,3 2,5
18.05.2019 07:00:00 10,1 9,9 4 2 4 2 N 1006,0 2,1
18.05.2019 06:00:00 9,5 9,4 4 2 4 2 N 1006,1 1,2
18.05.2019 05:00:00 8,5 8,3 4 2 - - N 1006,2 1,9
18.05.2019 04:00:00 10,3 10,1 4 2 4 2 N 1006,2 2,2
18.05.2019 03:00:00 10,6 10,4 4 2 4 2 N 1006,3 2,6
18.05.2019 02:00:00 10,6 10,4 4 2 - - N 1006,5 2,6
18.05.2019 01:00:00 10,5 10,2 4 2 7 4 N 1006,5 2,7
18.05.2019 00:00:00 10,6 10,3 4 2 4 2 N 1006,6 3,0
17.05.2019 23:00:00 10,8 10,6 4 2 - - N 1007,0 3,4
17.05.2019 22:00:00 10,8 10,3 4 2 7 4 N 1007,0 6
17.05.2019 21:00:00 11,1 10,5 4 2 7 4 N 1006,7 8
17.05.2019 20:00:00 11,6 9,9 4 2 - - N 1006,7 11
17.05.2019 19:00:00 12,0 9,2 4 2 7 4 N 1006,7 20
17.05.2019 18:00:00 11,6 8,8 4 2 14 8 N 1007,1 20
17.05.2019 17:00:00 11,6 8,3 7 4 - - ENE 1007,2 15
17.05.2019 16:00:00 11,5 8,3 11 6 14 8 ENE 1007,3 15
17.05.2019 15:00:00 11,1 8,4 7 4 18 10 E 1007,7 15
17.05.2019 14:00:00 11,1 7,3 7 4 - - E 1007,7 15
17.05.2019 13:00:00 11,1 7,2 11 6 18 10 ENE 1007,7 15
17.05.2019 12:00:00 10,8 7,1 11 6 22 12 E 1008,0 15
17.05.2019 11:00:00 10,7 6,6 11 6 - - E 1008,2 10
17.05.2019 10:00:00 10,6 7,3 11 6 18 10 ENE 1008,7 6
17.05.2019 09:00:00 9,5 8,4 7 4 14 8 E 1009,2 3,3
17.05.2019 08:00:00 9,0 8,1 11 6 - - ENE 1009,5 4,0
17.05.2019 07:00:00 9,1 7,4 11 6 18 10 ENE 1009,3 4,0
17.05.2019 06:00:00 9,0 7,4 11 6 18 10 ENE 1009,5 6
17.05.2019 05:00:00 9,1 7,5 11 6 - - ENE 1009,7 6
17.05.2019 04:00:00 9,1 7,7 11 6 14 8 ENE 1010,2 5
17.05.2019 03:00:00 9,1 7,5 7 4 18 10 ENE 1010,8 10
17.05.2019 02:00:00 9,3 7,8 11 6 - - ENE 1011,6 9
17.05.2019 01:00:00 9,8 7,7 11 6 22 12 E 1012,1 18
17.05.2019 00:00:00 11,0 7,0 11 6 25 14 ENE 1012,7 20
16.05.2019 23:00:00 12,3 5,6 18 10 - - NE 1013,1 20
16.05.2019 22:00:00 12,6 3,8 11 6 14 8 NE 1013,2 20
16.05.2019 21:00:00 14,1 3,1 11 6 25 14 NE 1013,2 20
16.05.2019 20:00:00 14,7 3,3 14 8 - - NE 1013,6 20
16.05.2019 19:00:00 15,3 4,3 22 12 32 18 NE 1014,2 20
16.05.2019 18:00:00 17,2 5,1 22 12 32 18 NNE 1014,7 20
16.05.2019 17:00:00 17,5 4,9 18 10 - - ENE 1015,3 20
16.05.2019 16:00:00 16,4 3,9 11 6 32 18 NE 1016,5 20
16.05.2019 15:00:00 16,2 2,8 18 10 32 18 NE 1017,5 20
16.05.2019 14:00:00 16,4 2,3 18 10 - - NE 1017,8 20
16.05.2019 13:00:00 14,3 0,6 14 8 25 14 NE 1018,6 20
16.05.2019 12:00:00 13,6 1,1 18 10 22 12 NNE 1019,2 20
16.05.2019 11:00:00 14,5 2,3 14 8 - - NNE 1019,5 20
16.05.2019 10:00:00 13,7 3,1 14 8 25 14 ENE 1020,2 20
16.05.2019 09:00:00 12,4 3,0 11 6 18 10 NE 1020,5 20
16.05.2019 08:00:00 8,5 3,1 7 4 - - NNE 1021,1 20
16.05.2019 07:00:00 4,8 2,1 4 2 4 2 N 1021,5 20
16.05.2019 06:00:00 4,3 1,4 4 2 4 2 N 1021,6 20
16.05.2019 05:00:00 5,4 1,4 4 2 - - N 1021,8 20
16.05.2019 04:00:00 6,5 1,2 7 4 14 8 ENE 1022,0 20
16.05.2019 03:00:00 7,6 0,9 11 6 14 8 NE 1022,3 20
16.05.2019 02:00:00 7,5 0,3 7 4 - - NE 1022,7 20
16.05.2019 01:00:00 8,4 0,6 4 2 7 4 N 1023,0 20
16.05.2019 00:00:00 9,0 0,3 7 4 7 4 NE 1023,3 20
15.05.2019 23:00:00 9,8 0,1 4 2 - - N 1023,7 20
15.05.2019 22:00:00 11,1 -0,1 7 4 18 10 NE 1024,0 20
15.05.2019 21:00:00 13,6 -1,2 11 6 29 16 ENE 1023,8 20
15.05.2019 20:00:00 14,9 -1,6 14 8 - - ENE 1023,7 20
15.05.2019 19:00:00 16,3 -1,6 18 10 29 16 ENE 1023,8 20
15.05.2019 18:00:00 16,8 -3,0 18 10 32 18 ENE 1024,0 20
15.05.2019 17:00:00 20,7 9,1 11 6 - - WSW 1024,9 20
15.05.2019 16:00:00 19,2 9,1 7 4 22 12 W 1025,2 20
15.05.2019 15:00:00 19,0 8,6 18 10 25 14 WSW 1025,2 20
15.05.2019 14:00:00 19,2 9,1 14 8 - - WSW 1025,0 20
15.05.2019 13:00:00 16,8 -3,4 18 10 36 19 ENE 1026,7 20
15.05.2019 12:00:00 15,7 -1,3 18 10 29 16 NE 1027,2 20
15.05.2019 11:00:00 - - - - - - - - -
15.05.2019 10:00:00 - - - - - - - - -
15.05.2019 09:00:00 11,6 2,9 7 4 14 8 ENE 1028,5 20
15.05.2019 08:00:00 8,8 3,1 4 2 - - N 1028,4 19
15.05.2019 07:00:00 4,0 2,2 4 2 4 2 N 1028,7 19
15.05.2019 06:00:00 3,2 1,4 4 2 4 2 N 1028,7 19
15.05.2019 05:00:00 3,9 1,5 4 2 - - N 1028,7 20

tt = temperature
td = dewpoint
ff = wind speed
fx = gusts
dd = wind direction
ppp = reduced air pressure
vv = visibility

Next stations